FW6627 Weather Reports


time (UTC)temp
C
wind
direction
speed
KPH
gust
KPH
rain 1hr
cm
rain 24hr
cm
rain mn
cm
humidity
%
barometer
mb
20260510204544 27 0 0.0 1.6 0.00 0.00 0.00 38 1011.7
20260510203035 28 0 0.0 4.8 0.00 0.00 0.00 37 1011.6
20260510201542 28 102 0.0 3.2 0.00 0.00 0.00 37 1011.6
20260510200052 29 0 0.0 3.2 0.00 0.00 0.00 37 1011.6
20260510194546 30 103 0.0 3.2 0.00 0.00 0.00 35 1012.0
20260510193041 30 0 0.0 4.8 0.00 0.00 0.00 37 1012.4
20260510191555 30 83 0.0 3.2 0.00 0.00 0.00 39 1012.7
20260510190056 30 0 0.0 3.2 0.00 0.00 0.00 37 1012.8
20260510184539 30 0 0.0 1.6 0.00 0.00 0.00 39 1012.8
20260510183047 29 0 0.0 4.8 0.00 0.00 0.00 41 1012.9
20260510181542 29 0 0.0 1.6 0.00 0.00 0.00 40 1013.1
20260510180038 28 0 0.0 3.2 0.00 0.00 0.00 39 1013.1
20260510174535 28 0 0.0 1.6 0.00 0.00 0.00 45 1013.3
20260510173035 29 0 0.0 1.6 0.00 0.00 0.00 39 1013.1
20260510171542 28 0 0.0 1.6 0.00 0.00 0.00 42 1013.2
20260510170044 29 0 0.0 3.2 0.00 0.00 0.00 42 1013.3
20260510164540 29 0 0.0 3.2 0.00 0.00 0.00 41 1013.5
20260510163038 28 0 0.0 3.2 0.00 0.00 0.00 44 1013.5
20260510161541 28 0 0.0 3.2 0.00 0.00 0.00 44 1013.6
20260510160056 28 0 0.0 8.0 0.00 0.00 0.00 45 1013.5
20260510154552 27 83 0.0 3.2 0.00 0.00 0.00 47 1013.7
20260510153042 26 0 0.0 1.6 0.00 0.00 0.00 51 1013.8
20260510151537 26 0 0.0 1.6 0.00 0.00 0.00 49 1013.9
20260510150040 24 0 0.0 3.2 0.00 0.00 0.00 53 1013.7
20260510144548 23 0 0.0 1.6 0.00 0.00 0.00 57 1013.5
20260510143043 22 0 0.0 0.0 0.00 0.00 0.00 58 1013.4
20260510141541 21 0 0.0 1.6 0.00 0.00 0.00 63 1013.3
20260510140041 21 0 0.0 1.6 0.00 0.00 0.00 65 1013.2
20260510134545 20 0 0.0 0.0 0.00 0.00 0.00 71 1013.1
20260510133042 19 0 0.0 0.0 0.00 0.00 0.00 74 1013.2
20260510131537 18 0 0.0 0.0 0.00 0.00 0.00 78 1013.4
20260510130041 18 0 0.0 0.0 0.00 0.00 0.00 81 1013.6
20260510124545 16 0 0.0 0.0 0.00 0.00 0.00 88 1013.5
20260510123039 16 0 0.0 0.0 0.00 0.00 0.00 93 1013.5
20260510121540 15 0 0.0 0.0 0.00 0.00 0.00 95 1013.3
20260510120038 13 0 0.0 0.0 0.00 0.00 0.00 96 1013.0
20260510114534 13 0 0.0 0.0 0.00 0.00 0.00 96 1012.9
20260510113041 12 0 0.0 0.0 0.00 0.00 0.00 96 1012.6
20260510111541 11 0 0.0 0.0 0.00 0.00 0.00 96 1012.3
20260510110044 11 0 0.0 0.0 0.00 0.00 0.00 95 1012.2
20260510104540 11 0 0.0 0.0 0.00 0.00 0.00 95 1012.0
20260510103040 11 0 0.0 0.0 0.00 0.00 0.00 95 1011.9
20260510101536 11 0 0.0 0.0 0.00 0.00 0.00 95 1011.8
20260510100034 11 0 0.0 0.0 0.00 0.00 0.00 95 1011.8
20260510094554 11 0 0.0 0.0 0.00 0.00 0.00 95 1011.6
20260510093055 11 0 0.0 0.0 0.00 0.00 0.00 94 1011.8
20260510091544 11 0 0.0 0.0 0.00 0.00 0.00 94 1011.5
20260510090039 11 0 0.0 0.0 0.00 0.00 0.00 94 1011.3
20260510084535 11 0 0.0 0.0 0.00 0.00 0.00 94 1011.1
20260510083042 12 0 0.0 0.0 0.00 0.00 0.00 94 1010.9
20260510081543 12 0 0.0 0.0 0.00 0.00 0.00 93 1010.7
20260510080042 12 0 0.0 0.0 0.00 0.00 0.00 93 1010.7
20260510074538 12 0 0.0 0.0 0.00 0.00 0.00 93 1010.6
20260510073043 12 0 0.0 0.0 0.00 0.00 0.00 93 1010.3
20260510071547 13 0 0.0 0.0 0.00 0.00 0.00 92 1010.3
20260510070315 13 0 0.0 0.0 0.00 0.00 0.00 92 1010.1
20260510064539 13 0 0.0 0.0 0.00 0.00 0.00 92 1010.2
20260510063041 13 0 0.0 0.0 0.00 0.00 0.00 91 1010.1
20260510061541 13 0 0.0 0.0 0.00 0.00 0.00 91 1010.1
20260510060037 13 0 0.0 0.0 0.00 0.00 0.00 91 1010.1
20260510054535 13 0 0.0 0.0 0.00 0.00 0.00 91 1010.1
20260510053051 14 0 0.0 0.0 0.00 0.00 0.00 90 1010.0
20260510051547 14 0 0.0 0.0 0.00 0.00 0.00 90 1010.2
20260510050041 15 0 0.0 0.0 0.00 0.00 0.00 89 1010.1
20260510044540 15 0 0.0 0.0 0.00 0.00 0.00 88 1009.9
20260510043045 15 0 0.0 0.0 0.00 0.00 0.00 88 1010.2
20260510041538 15 0 0.0 0.0 0.00 0.00 0.00 88 1010.0
20260510040041 15 0 0.0 0.0 0.00 0.00 0.00 87 1010.1
20260510034541 15 0 0.0 0.0 0.00 0.00 0.00 86 1010.0
20260510033040 16 0 0.0 0.0 0.00 0.00 0.00 85 1009.8
20260510031546 16 0 0.0 0.0 0.00 0.00 0.00 84 1009.8
20260510030037 16 0 0.0 0.0 0.00 0.00 0.00 83 1009.7
20260510024538 16 0 0.0 0.0 0.00 0.00 0.00 82 1009.5
20260510023041 17 0 0.0 0.0 0.00 0.00 0.00 81 1009.4
20260510021547 17 0 0.0 0.0 0.00 0.00 0.00 80 1009.6
20260510020038 17 0 0.0 1.6 0.00 0.00 0.00 79 1009.2
20260510014536 17 0 0.0 1.6 0.00 0.00 0.00 78 1009.1
20260510013045 18 0 0.0 0.0 0.00 0.00 0.00 77 1009.0
20260510011544 18 0 0.0 0.0 0.00 0.00 0.00 76 1009.0
20260510010041 18 0 0.0 0.0 0.00 0.00 0.00 74 1008.7
20260510004543 19 0 0.0 0.0 0.00 0.00 0.00 71 1008.7
20260510003043 20 0 0.0 0.0 0.00 0.00 0.00 69 1008.6
20260510001543 20 0 0.0 0.0 0.00 0.00 0.00 66 1008.5
20260510000048 21 276 0.0 1.6 0.00 0.00 0.00 63 1008.3
20260509234542 22 0 0.0 0.0 0.00 0.00 0.00 61 1008.2
20260509233041 22 0 0.0 1.6 0.00 0.00 0.00 58 1008.1
20260509231544 22 0 0.0 3.2 0.00 0.00 0.00 57 1008.0
20260509230041 22 0 0.0 1.6 0.00 0.00 0.00 56 1007.9
20260509224540 23 0 0.0 3.2 0.00 0.00 0.00 56 1007.9
20260509223036 23 0 0.0 1.6 0.00 0.00 0.00 55 1008.2
20260509221538 23 0 0.0 3.2 0.00 0.00 0.00 52 1008.1
20260509220041 25 299 0.0 3.2 0.00 0.00 0.00 51 1008.2
20260509214557 25 0 0.0 3.2 0.00 0.00 0.00 52 1008.1
20260509213040 25 0 0.0 8.0 0.00 0.00 0.00 51 1008.0
20260509211539 25 298 0.0 4.8 0.00 0.00 0.00 50 1008.0
20260509210044 24 290 0.0 3.2 0.00 0.00 0.00 51 1007.8